EW3600 Weather Reports


Display with metric or nautical units.
time (UTC)temp
F
wind
direction
speed
MPH
gust
MPH
rain 1hr
in
rain 24hr
in
rain mn
in
humidity
%
barometer
mb
20260504231523 67 26 10.0 16.0 0.00 0.00 0.00 27 998.2
20260504230020 68 4 9.0 17.0 0.00 0.00 0.00 24 998.1
20260504224507 67 356 13.0 30.0 0.00 0.00 0.00 26 998.4
20260504223006 67 346 18.0 23.0 0.00 0.00 0.00 29 998.5
20260504221505 71 345 0.0 6.0 0.00 0.00 0.00 21 998.6
20260504220003 73 128 4.0 8.0 0.00 0.00 0.00 21 998.7
20260504214558 71 191 0.0 6.0 0.00 0.00 0.00 23 999.0
20260504213055 68 59 1.0 13.0 0.00 0.00 0.00 22 999.2
20260504211552 66 15 13.0 23.0 0.00 0.00 0.00 27 999.6
20260504210105 68 28 4.0 9.0 0.00 0.00 0.00 24 999.7
20260504204533 68 305 0.0 9.0 0.00 0.00 0.00 24 999.7
20260504203043 69 36 2.0 6.0 0.00 0.00 0.00 24 999.8
20260504201508 69 159 1.0 5.0 0.00 0.00 0.00 23 999.9
20260504200006 68 207 7.0 12.0 0.00 0.00 0.00 25 1000.2
20260504194546 68 130 11.0 18.0 0.00 0.00 0.00 28 1000.3
20260504193046 69 153 12.0 23.0 0.00 0.00 0.00 27 1000.6
20260504191524 69 160 12.0 20.0 0.00 0.00 0.00 29 1000.8
20260504190018 68 186 10.0 22.0 0.00 0.00 0.00 30 1001.0
20260504184557 67 151 11.0 21.0 0.00 0.00 0.00 31 1001.4
20260504183055 66 173 12.0 20.0 0.00 0.00 0.00 31 1001.7
20260504181540 66 210 12.0 21.0 0.00 0.00 0.00 31 1001.9
20260504180032 65 214 15.0 22.0 0.00 0.00 0.00 32 1002.2
20260504174511 64 168 14.0 20.0 0.00 0.00 0.00 32 1002.3
20260504173009 64 177 14.0 21.0 0.00 0.00 0.00 33 1002.4
20260504171550 63 181 14.0 24.0 0.00 0.00 0.00 35 1002.6
20260504081537 0 0.0 0.0 0.00 0.00 0.00 1003.0
20260504050113 49 84 0.0 1.0 0.00 0.00 0.00 51 1004.6
20260504044554 50 84 0.0 3.0 0.00 0.00 0.00 50 1004.7
20260504043036 51 76 0.0 0.0 0.00 0.00 0.00 46 1004.6
20260504041535 51 76 0.0 1.0 0.00 0.00 0.00 48 1004.6
20260504040018 51 88 0.0 1.0 0.00 0.00 0.00 48 1004.6
20260504034518 51 79 0.0 2.0 0.00 0.00 0.00 49 1004.5
20260504033103 52 103 0.0 1.0 0.00 0.00 0.00 47 1004.4
20260504031604 54 103 0.0 1.0 0.00 0.00 0.00 47 1004.4
20260504030044 54 103 0.0 2.0 0.00 0.00 0.00 51 1004.4
20260504024541 55 213 0.0 4.0 0.00 0.00 0.00 45 1004.4
20260504023024 57 236 4.0 8.0 0.00 0.00 0.00 44 1004.4
20260504021522 58 234 6.0 8.0 0.00 0.00 0.00 46 1004.4
20260504020003 62 191 4.0 10.0 0.00 0.00 0.00 37 1004.4
20260504014502 63 179 5.0 6.0 0.00 0.00 0.00 30 1004.5
20260504013046 63 169 2.0 10.0 0.00 0.00 0.00 33 1004.8
20260504011541 64 137 7.0 12.0 0.00 0.00 0.00 29 1005.1
20260504010022 64 193 15.0 25.0 0.00 0.00 0.00 30 1005.4
20260504004523 65 285 4.0 10.0 0.00 0.00 0.00 28 1005.5
20260504003004 66 143 1.0 8.0 0.00 0.00 0.00 27 1005.4
20260504001504 65 146 4.0 10.0 0.00 0.00 0.00 27 1005.4
20260504000048 66 231 6.0 23.0 0.00 0.00 0.00 27 1005.5
20260503234548 64 271 11.0 21.0 0.00 0.00 0.00 32 1005.6
20260503233027 65 205 9.0 18.0 0.00 0.00 0.00 28 1005.5